This is the latest recevied weather packets stored in our database for station/object KE5WTH-14. If no packets are shown the sender has not sent any weather packets the latest 10 day(s).
| Time | Temp. | Humidity | Pressure | Rain* | Wind** | Luminosity | Snow |
|---|---|---|---|---|---|---|---|
| 1778352072 | 28.89° C | 62% | 1010.1 hPa | 0 mm | - | 1085 W/m² | - |
| 1778352006 | 28.89° C | 64% | 1010.2 hPa | 0 mm | - | 1073 W/m² | - |
| 1778351945 | 28.89° C | 63% | 1010.1 hPa | 0 mm | - | 1110 W/m² | - |
| 1778351883 | 28.89° C | 66% | 1010.1 hPa | 0 mm | - | 1125 W/m² | - |
| 1778351822 | 28.89° C | 62% | 1010.2 hPa | 0 mm | - | 1143 W/m² | - |
| 1778351765 | 28.89° C | 64% | 1010.1 hPa | 0 mm | - | 1148 W/m² | - |
| 1778351734 | 28.89° C | 63% | 1010.3 hPa | 0 mm | - | 216 W/m² | - |
| 1778351706 | 28.89° C | 63% | 1010.2 hPa | 0 mm | - | 216 W/m² | - |
| 1778351677 | 28.89° C | 64% | 1010.2 hPa | 0 mm | - | 457 W/m² | - |
| 1778351515 | 28.89° C | 66% | 1010.2 hPa | 0 mm | - | 457 W/m² | - |
| 1778351453 | 28.89° C | 66% | 1010.2 hPa | 0 mm | - | 1152 W/m² | - |
| 1778351391 | 28.89° C | 65% | 1010.2 hPa | 0 mm | - | 1145 W/m² | - |
| 1778351330 | 28.89° C | 65% | 1010.3 hPa | 0 mm | - | 988 W/m² | - |
| 1778351268 | 28.89° C | 66% | 1010.3 hPa | 0 mm | - | 415 W/m² | - |
| 1778351204 | 28.89° C | 65% | 1010.3 hPa | 0 mm | - | 1001 W/m² | - |
| 1778351146 | 28.89° C | 64% | 1010.3 hPa | 0 mm | - | 1136 W/m² | - |
| 1778351083 | 28.89° C | 64% | 1010.3 hPa | 0 mm | - | 1127 W/m² | - |
| 1778351023 | 28.89° C | 65% | 1010.2 hPa | 0 mm | - | 1117 W/m² | - |
| 1778350960 | 28.33° C | 66% | 1010.3 hPa | 0 mm | - | 1111 W/m² | - |
| 1778350897 | 28.33° C | 67% | 1010.3 hPa | 0 mm | - | 424 W/m² | - |
| 1778350836 | 28.33° C | 67% | 1010.2 hPa | 0 mm | - | 658 W/m² | - |
| 1778350773 | 28.33° C | 65% | 1010.3 hPa | 0 mm | - | 1122 W/m² | - |
| 1778350714 | 28.33° C | 65% | 1010.3 hPa | 0 mm | - | 1120 W/m² | - |
| 1778350653 | 28.33° C | 64% | 1010.3 hPa | 0 mm | - | 1117 W/m² | - |
| 1778350593 | 28.33° C | 65% | 1010.4 hPa | 0 mm | - | 1106 W/m² | - |
* Rain latest hour (hover to see other rain measurements)
** Current wind speed in m/s (hover to see current wind gust speed)